Location: Kapla
(46.2483°N, 15.0094°E)
Time: 14:41:23
(UTC+00:00)

COSMOS 2455 - Pass Details

Date: 03 March 2021
Orbit: 902 x 908 km, 67.1° (Epoch: 18 April)

Event Time Altitude Azimuth Distance (km) Brightness Sun altitude
Rises 17:06:38 0° 322° (NW) 3,544 6.4 -3.8°
Reaches altitude 10° 17:09:15 10° 316° (NW) 2,599 5.9 -4.3°
Maximum altitude 17:14:51 42° 248° (WSW) 1,280 4.4 -5.2°
Drops below altitude 10° 17:20:26 10° 179° (S) 2,581 5.3 -6.2°
Sets 17:23:03 0° 172° (S) 3,518 5.9 -6.7°
